FDX441 KPNS-KPBI

Flight info

Callsign FDX441
Flight time 1h 16m
Altitude 35000
Route CEW DEFUN VUUDU1
Aircraft E195/M-SDE3GILORVW/S

Departure

Time 2026-04-24 23:21
Airport Pensacola International Airport (KPNS)

Arrival

Time 2026-04-25 00:37
Airport Palm Beach International Airport (KPBI)
Time Latitude Longitude Altitude Speed Heading
2026-04-24 22:56 30.47908 -87.19273 122 ft 0 kts 210°
2026-04-24 23:13 30.47906 -87.19273 123 ft 0 kts 200°
2026-04-24 23:14 30.47904 -87.19272 123 ft 0 kts 181°
2026-04-24 23:14 30.47900 -87.19268 123 ft 1 kts 153°
2026-04-24 23:14 30.47896 -87.19260 122 ft 1 kts 117°
2026-04-24 23:14 30.47896 -87.19245 122 ft 2 kts 88°
2026-04-24 23:15 30.47900 -87.19222 125 ft 3 kts 77°
2026-04-24 23:15 30.47911 -87.19192 122 ft 5 kts 59°
2026-04-24 23:15 30.47935 -87.19161 125 ft 6 kts 42°
2026-04-24 23:15 30.47974 -87.19144 127 ft 6 kts
2026-04-24 23:16 30.48022 -87.19154 127 ft 8 kts 347°
2026-04-24 23:16 30.48058 -87.19164 122 ft 8 kts 346°
2026-04-24 23:16 30.48119 -87.19181 126 ft 10 kts 346°
2026-04-24 23:16 30.48192 -87.19202 124 ft 8 kts 346°
2026-04-24 23:17 30.48248 -87.19196 130 ft 8 kts 37°
2026-04-24 23:17 30.48258 -87.19175 128 ft 1 kts 70°
2026-04-24 23:17 30.48259 -87.19169 128 ft 1 kts 70°
2026-04-24 23:17 30.48260 -87.19165 129 ft 1 kts 71°
2026-04-24 23:18 30.48264 -87.19153 130 ft 3 kts 74°
2026-04-24 23:18 30.48269 -87.19126 132 ft 3 kts 77°
2026-04-24 23:18 30.48274 -87.19098 130 ft 4 kts 78°
2026-04-24 23:18 30.48270 -87.19069 127 ft 4 kts 121°
2026-04-24 23:19 30.48248 -87.19054 132 ft 4 kts 158°
2026-04-24 23:19 30.48244 -87.19053 132 ft 0 kts 163°
2026-04-24 23:20 30.48121 -87.19016 127 ft 48 kts 168°
2026-04-24 23:20 30.47576 -87.18875 125 ft 111 kts 166°
2026-04-24 23:21 30.46651 -87.18624 228 ft 154 kts 166°
2026-04-24 23:21 30.45567 -87.18322 777 ft 168 kts 168°
2026-04-24 23:21 30.44428 -87.17972 1534 ft 170 kts 161°
2026-04-24 23:21 30.43368 -87.17294 2171 ft 180 kts 143°
2026-04-24 23:22 30.42508 -87.16207 2861 ft 187 kts 126°
2026-04-24 23:22 30.41894 -87.14826 3322 ft 205 kts 114°
2026-04-24 23:22 30.41467 -87.13190 3853 ft 219 kts 102°
2026-04-24 23:22 30.41372 -87.11379 4359 ft 234 kts 88°
2026-04-24 23:23 30.41656 -87.09458 4861 ft 252 kts 75°
2026-04-24 23:23 30.42292 -87.07529 5621 ft 261 kts 62°
2026-04-24 23:23 30.43521 -87.05924 6155 ft 280 kts 33°
2026-04-24 23:23 30.45448 -87.05140 6398 ft 303 kts
2026-04-24 23:24 30.47516 -87.04617 7276 ft 308 kts 22°
2026-04-24 23:24 30.49193 -87.03093 8212 ft 311 kts 53°
2026-04-24 23:24 30.50213 -87.00899 9205 ft 310 kts 64°
2026-04-24 23:24 30.51054 -86.98663 10272 ft 304 kts 65°
2026-04-24 23:25 30.51938 -86.96349 10720 ft 323 kts 65°
2026-04-24 23:25 30.52850 -86.93921 11379 ft 332 kts 65°
2026-04-24 23:25 30.53789 -86.91471 12213 ft 334 kts 64°
2026-04-24 23:25 30.54752 -86.88995 13065 ft 338 kts 63°
2026-04-24 23:26 30.55726 -86.86498 13907 ft 343 kts 63°
2026-04-24 23:26 30.56708 -86.83956 14678 ft 348 kts 63°
2026-04-24 23:26 30.57695 -86.81370 15473 ft 353 kts 63°
2026-04-24 23:26 30.58704 -86.78703 15979 ft 368 kts 64°
2026-04-24 23:27 30.59705 -86.75975 16614 ft 375 kts 64°
2026-04-24 23:27 30.60733 -86.73171 17349 ft 381 kts 64°
2026-04-24 23:27 30.61778 -86.70325 18051 ft 386 kts 64°
2026-04-24 23:27 30.62832 -86.67439 18680 ft 390 kts 64°
2026-04-24 23:28 30.63887 -86.64530 19330 ft 392 kts 64°
2026-04-24 23:28 30.64941 -86.61603 19989 ft 395 kts 64°
2026-04-24 23:28 30.66001 -86.58637 20634 ft 398 kts 64°
2026-04-24 23:28 30.67057 -86.55652 21274 ft 401 kts 64°
2026-04-24 23:29 30.68116 -86.52646 21926 ft 404 kts 64°
2026-04-24 23:29 30.69180 -86.49605 22511 ft 407 kts 65°
2026-04-24 23:29 30.70225 -86.46587 23061 ft 410 kts 65°
2026-04-24 23:29 30.71286 -86.43498 23583 ft 413 kts 65°
2026-04-24 23:30 30.72349 -86.40386 24049 ft 416 kts 65°
2026-04-24 23:30 30.73414 -86.37251 24476 ft 419 kts 65°
2026-04-24 23:30 30.74480 -86.34091 24905 ft 422 kts 65°
2026-04-24 23:30 30.75552 -86.30904 25336 ft 425 kts 66°
2026-04-24 23:31 30.76625 -86.27689 25766 ft 427 kts 66°
2026-04-24 23:31 30.77699 -86.24457 26177 ft 430 kts 66°
2026-04-24 23:31 30.78762 -86.21240 26585 ft 433 kts 66°
2026-04-24 23:31 30.79841 -86.17960 26959 ft 435 kts 67°
2026-04-24 23:32 30.80906 -86.14682 27530 ft 434 kts 70°
2026-04-24 23:32 30.81502 -86.11241 27839 ft 439 kts 87°
2026-04-24 23:32 30.81483 -86.07679 28233 ft 441 kts 91°
2026-04-24 23:32 30.81351 -86.04099 28572 ft 444 kts 92°
2026-04-24 23:33 30.81220 -86.00509 28902 ft 446 kts 91°
2026-04-24 23:33 30.81107 -85.96898 29245 ft 447 kts 91°
2026-04-24 23:33 30.81005 -85.93291 29721 ft 445 kts 91°
2026-04-24 23:33 30.80908 -85.89714 30317 ft 439 kts 91°
2026-04-24 23:34 30.80817 -85.86234 30829 ft 434 kts 91°
2026-04-24 23:34 30.80722 -85.82727 31168 ft 434 kts 91°
2026-04-24 23:34 30.80623 -85.79224 31524 ft 434 kts 91°
2026-04-24 23:34 30.80523 -85.75723 31884 ft 433 kts 91°
2026-04-24 23:35 30.80421 -85.72222 32205 ft 433 kts 91°
2026-04-24 23:35 30.80319 -85.68736 32609 ft 430 kts 91°
2026-04-24 23:35 30.80216 -85.65257 32924 ft 430 kts 91°
2026-04-24 23:35 30.80110 -85.61784 33199 ft 430 kts 91°
2026-04-24 23:36 30.80005 -85.58364 33544 ft 428 kts 91°
2026-04-24 23:36 30.79899 -85.54909 33780 ft 429 kts 91°
2026-04-24 23:36 30.79790 -85.51444 34034 ft 427 kts 91°
2026-04-24 23:36 30.79680 -85.48001 34273 ft 426 kts 91°
2026-04-24 23:37 30.79569 -85.44553 34378 ft 428 kts 91°
2026-04-24 23:37 30.79456 -85.41090 34571 ft 428 kts 91°
2026-04-24 23:37 30.79228 -85.34176 35076 ft 423 kts 91°
2026-04-24 23:38 30.78996 -85.27292 35006 ft 435 kts 91°
2026-04-24 23:38 30.78872 -85.23732 34886 ft 443 kts 91°
2026-04-24 23:38 30.78748 -85.20145 34927 ft 447 kts 91°
2026-04-24 23:39 30.78493 -85.12853 34918 ft 455 kts 91°
2026-04-24 23:39 30.78228 -85.05419 34910 ft 464 kts 91°
2026-04-24 23:40 30.77954 -84.97879 34921 ft 470 kts 91°
2026-04-24 23:40 30.77676 -84.90326 34915 ft 470 kts 91°
2026-04-24 23:41 30.76685 -84.82850 34935 ft 473 kts 113°
2026-04-24 23:41 30.73427 -84.76202 34901 ft 474 kts 122°
2026-04-24 23:42 30.69965 -84.69702 34918 ft 473 kts 121°
2026-04-24 23:42 30.66563 -84.63205 34915 ft 475 kts 121°
2026-04-24 23:43 30.63131 -84.56635 34924 ft 476 kts 121°
2026-04-24 23:43 30.59696 -84.50070 34928 ft 476 kts 121°
2026-04-24 23:44 30.56253 -84.43503 34934 ft 476 kts 121°
2026-04-24 23:44 30.52807 -84.36939 34942 ft 476 kts 121°
2026-04-24 23:45 30.49378 -84.30420 34939 ft 477 kts 121°
2026-04-24 23:45 30.45916 -84.23847 34936 ft 479 kts 121°
2026-04-24 23:46 30.42436 -84.17253 34947 ft 479 kts 121°
2026-04-24 23:46 30.38953 -84.10670 34947 ft 479 kts 123°
2026-04-24 23:47 30.36903 -84.07710 34950 ft 479 kts 138°
2026-04-24 23:47 30.34228 -84.05453 34978 ft 477 kts 150°
2026-04-24 23:47 30.28444 -84.01661 34921 ft 477 kts 152°
2026-04-24 23:48 30.22670 -83.97891 34939 ft 477 kts 152°
2026-04-24 23:48 30.16909 -83.94079 34957 ft 477 kts 152°
2026-04-24 23:49 30.11144 -83.90259 34965 ft 478 kts 152°
2026-04-24 23:49 30.05402 -83.86461 34962 ft 480 kts 152°
2026-04-24 23:50 29.99607 -83.82632 34961 ft 480 kts 152°
2026-04-24 23:50 29.93817 -83.78813 34971 ft 480 kts 152°
2026-04-24 23:51 29.88015 -83.74991 34965 ft 480 kts 152°
2026-04-24 23:51 29.82253 -83.71200 34965 ft 480 kts 152°
2026-04-24 23:52 29.76448 -83.67391 34965 ft 480 kts 152°
2026-04-24 23:52 29.70642 -83.63587 34965 ft 480 kts 152°
2026-04-24 23:53 29.64832 -83.59784 34976 ft 481 kts 152°
2026-04-24 23:53 29.59049 -83.56005 34967 ft 481 kts 152°
2026-04-24 23:54 29.53226 -83.52205 34964 ft 482 kts 152°
2026-04-24 23:54 29.47384 -83.48397 34965 ft 483 kts 152°
2026-04-24 23:55 29.41536 -83.44590 34965 ft 483 kts 152°
2026-04-24 23:55 29.35721 -83.40810 34966 ft 483 kts 152°
2026-04-24 23:56 29.29859 -83.37004 34968 ft 484 kts 153°
2026-04-24 23:56 29.24103 -83.32995 34990 ft 486 kts 146°
2026-04-24 23:57 29.18679 -83.28357 34955 ft 487 kts 144°
2026-04-24 23:57 29.13273 -83.23694 34957 ft 486 kts 144°
2026-04-24 23:58 29.07894 -83.19087 34967 ft 487 kts 145°
2026-04-24 23:58 29.02451 -83.14438 34964 ft 490 kts 145°
2026-04-24 23:59 28.96987 -83.09776 34965 ft 490 kts 145°
2026-04-24 23:59 28.91520 -83.05118 34965 ft 490 kts 145°
2026-04-25 00:00 28.86087 -83.00495 34968 ft 491 kts 145°
2026-04-25 00:00 28.80615 -82.95845 34967 ft 491 kts 145°
2026-04-25 00:01 28.75143 -82.91201 34969 ft 491 kts 145°
2026-04-25 00:01 28.69646 -82.86544 34965 ft 492 kts 145°
2026-04-25 00:02 28.64190 -82.81926 34966 ft 492 kts 145°
2026-04-25 00:02 28.58698 -82.77284 34971 ft 492 kts 145°
2026-04-25 00:03 28.53198 -82.72642 34967 ft 492 kts 145°
2026-04-25 00:03 28.47697 -82.68006 34967 ft 492 kts 145°
2026-04-25 00:04 28.42184 -82.63366 34969 ft 495 kts 146°
2026-04-25 00:04 28.36651 -82.58713 34967 ft 495 kts 146°
2026-04-25 00:05 28.31158 -82.54101 34965 ft 495 kts 146°
2026-04-25 00:05 28.25624 -82.49461 34969 ft 495 kts 146°
2026-04-25 00:06 28.20091 -82.44828 34966 ft 495 kts 146°
2026-04-25 00:06 28.14554 -82.40198 34966 ft 495 kts 146°
2026-04-25 00:07 28.08994 -82.35555 34951 ft 493 kts 146°
2026-04-25 00:07 28.06291 -82.33296 34909 ft 474 kts 146°
2026-04-25 00:07 28.03635 -82.31226 34874 ft 452 kts 154°
2026-04-25 00:08 28.00882 -82.29878 34993 ft 426 kts 165°
2026-04-25 00:08 27.98060 -82.28877 34738 ft 426 kts 168°
2026-04-25 00:08 27.95179 -82.27949 34415 ft 433 kts 168°
2026-04-25 00:08 27.92276 -82.27001 34120 ft 436 kts 168°
2026-04-25 00:09 27.89358 -82.26026 33816 ft 438 kts 167°
2026-04-25 00:09 27.86439 -82.25039 33461 ft 438 kts 167°
2026-04-25 00:09 27.83520 -82.24049 33096 ft 439 kts 167°
2026-04-25 00:09 27.80595 -82.23063 32770 ft 440 kts 167°
2026-04-25 00:10 27.77652 -82.22072 32411 ft 441 kts 167°
2026-04-25 00:10 27.74707 -82.21080 32019 ft 442 kts 167°
2026-04-25 00:10 27.71802 -82.20100 31649 ft 442 kts 167°
2026-04-25 00:10 27.68848 -82.19102 31291 ft 443 kts 167°
2026-04-25 00:11 27.65895 -82.18105 30881 ft 444 kts 167°
2026-04-25 00:11 27.62938 -82.17105 30488 ft 444 kts 167°
2026-04-25 00:11 27.59974 -82.16106 30075 ft 445 kts 167°
2026-04-25 00:11 27.57006 -82.15129 29620 ft 445 kts 168°
2026-04-25 00:12 27.54029 -82.14154 29169 ft 445 kts 167°
2026-04-25 00:12 27.51055 -82.13179 28701 ft 446 kts 167°
2026-04-25 00:12 27.48084 -82.12202 28251 ft 445 kts 167°
2026-04-25 00:12 27.45083 -82.11219 27807 ft 452 kts 167°
2026-04-25 00:13 27.42099 -82.10239 27343 ft 452 kts 167°
2026-04-25 00:13 27.39089 -82.09248 26883 ft 449 kts 167°
2026-04-25 00:13 27.36099 -82.08267 26445 ft 446 kts 167°
2026-04-25 00:13 27.33136 -82.07292 25992 ft 442 kts 167°
2026-04-25 00:14 27.30219 -82.06313 25990 ft 435 kts 166°
2026-04-25 00:14 27.27300 -82.05336 25896 ft 440 kts 167°
2026-04-25 00:14 27.24371 -82.04348 25745 ft 440 kts 165°
2026-04-25 00:14 27.21606 -82.02835 25575 ft 446 kts 145°
2026-04-25 00:15 27.19441 -82.00346 25429 ft 449 kts 123°
2026-04-25 00:15 27.18087 -81.97201 25308 ft 447 kts 109°
2026-04-25 00:15 27.17129 -81.93886 25169 ft 446 kts 106°
2026-04-25 00:15 27.16207 -81.90610 25027 ft 445 kts 107°
2026-04-25 00:16 27.15216 -81.87322 24891 ft 444 kts 108°
2026-04-25 00:16 27.14182 -81.84050 24639 ft 445 kts 109°
2026-04-25 00:16 27.13148 -81.80782 24232 ft 443 kts 108°
2026-04-25 00:16 27.12132 -81.77536 23818 ft 438 kts 108°
2026-04-25 00:17 27.11121 -81.74327 23409 ft 434 kts 109°
2026-04-25 00:17 27.10113 -81.71153 22910 ft 430 kts 109°
2026-04-25 00:17 27.09109 -81.68013 22434 ft 426 kts 109°
2026-04-25 00:17 27.08108 -81.64894 21988 ft 422 kts 109°
2026-04-25 00:18 27.07128 -81.61854 21523 ft 418 kts 109°
2026-04-25 00:18 27.06140 -81.58808 21083 ft 414 kts 109°
2026-04-25 00:18 27.05153 -81.55774 20648 ft 412 kts 109°
2026-04-25 00:18 27.04172 -81.52765 20194 ft 410 kts 109°
2026-04-25 00:19 27.03192 -81.49780 19779 ft 407 kts 109°
2026-04-25 00:19 27.02215 -81.46812 19351 ft 404 kts 109°
2026-04-25 00:19 27.01239 -81.43861 18929 ft 402 kts 109°
2026-04-25 00:19 27.00267 -81.40929 18520 ft 400 kts 109°
2026-04-25 00:20 26.99298 -81.38024 18101 ft 397 kts 109°
2026-04-25 00:20 26.98344 -81.35170 17638 ft 394 kts 109°
2026-04-25 00:20 26.97383 -81.32303 17161 ft 392 kts 110°
2026-04-25 00:20 26.96427 -81.29463 16716 ft 388 kts 110°
2026-04-25 00:21 26.95474 -81.26645 16265 ft 384 kts 110°
2026-04-25 00:21 26.94532 -81.23870 15818 ft 379 kts 110°
2026-04-25 00:21 26.93597 -81.21126 15380 ft 375 kts 110°
2026-04-25 00:21 26.92669 -81.18409 14930 ft 372 kts 110°
2026-04-25 00:22 26.91744 -81.15711 14482 ft 369 kts 110°
2026-04-25 00:22 26.90824 -81.13035 14053 ft 366 kts 110°
2026-04-25 00:22 26.89909 -81.10381 13589 ft 364 kts 110°
2026-04-25 00:22 26.89011 -81.07787 13092 ft 361 kts 110°
2026-04-25 00:23 26.88107 -81.05182 12613 ft 358 kts 111°
2026-04-25 00:23 26.87205 -81.02593 12138 ft 355 kts 111°
2026-04-25 00:23 26.86307 -81.00028 11676 ft 352 kts 111°
2026-04-25 00:23 26.85413 -80.97481 11208 ft 349 kts 111°
2026-04-25 00:24 26.84537 -80.94991 11157 ft 335 kts 111°
2026-04-25 00:24 26.83747 -80.92588 12039 ft 331 kts 108°
2026-04-25 00:24 26.82985 -80.90042 11701 ft 351 kts 108°
2026-04-25 00:24 26.82232 -80.87462 11291 ft 346 kts 108°
2026-04-25 00:25 26.81481 -80.84937 10890 ft 338 kts 108°
2026-04-25 00:25 26.80750 -80.82508 10501 ft 327 kts 108°
2026-04-25 00:25 26.80037 -80.80155 10119 ft 314 kts 108°
2026-04-25 00:25 26.79338 -80.77853 9748 ft 311 kts 108°
2026-04-25 00:26 26.78646 -80.75579 9337 ft 307 kts 108°
2026-04-25 00:26 26.77959 -80.73327 8922 ft 304 kts 108°
2026-04-25 00:26 26.77280 -80.71096 8518 ft 301 kts 108°
2026-04-25 00:26 26.76606 -80.68891 8123 ft 299 kts 108°
2026-04-25 00:27 26.75999 -80.66905 7769 ft 296 kts 108°
2026-04-25 00:27 26.75865 -80.66466 7660 ft 292 kts 108°
2026-04-25 00:27 26.75204 -80.64291 5521 ft 325 kts 108°
2026-04-25 00:28 26.74446 -80.61828 4751 ft 316 kts 109°
2026-04-25 00:28 26.73755 -80.59736 5862 ft 275 kts 110°
2026-04-25 00:28 26.73051 -80.57657 5585 ft 290 kts 110°
2026-04-25 00:28 26.72352 -80.55637 5875 ft 275 kts 110°
2026-04-25 00:29 26.71671 -80.53546 5413 ft 290 kts 109°
2026-04-25 00:29 26.71036 -80.51520 5410 ft 263 kts 109°
2026-04-25 00:29 26.70461 -80.49671 5370 ft 240 kts 109°
2026-04-25 00:29 26.69935 -80.47985 5316 ft 220 kts 109°
2026-04-25 00:30 26.69459 -80.46447 5248 ft 204 kts 109°
2026-04-25 00:30 26.69009 -80.45005 5160 ft 190 kts 109°
2026-04-25 00:30 26.68575 -80.43599 4781 ft 196 kts 106°
2026-04-25 00:30 26.68455 -80.42039 4474 ft 210 kts 89°
2026-04-25 00:31 26.68474 -80.40359 4171 ft 220 kts 88°
2026-04-25 00:31 26.68599 -80.38657 3857 ft 217 kts 84°
2026-04-25 00:31 26.68748 -80.37003 3547 ft 209 kts 85°
2026-04-25 00:31 26.68935 -80.35442 3222 ft 198 kts 77°
2026-04-25 00:32 26.69264 -80.33995 2951 ft 186 kts 86°
2026-04-25 00:32 26.69224 -80.32582 2725 ft 180 kts 97°
2026-04-25 00:32 26.69158 -80.31187 2508 ft 180 kts 91°
2026-04-25 00:32 26.69137 -80.29787 2286 ft 180 kts 93°
2026-04-25 00:33 26.69071 -80.28409 2070 ft 179 kts 94°
2026-04-25 00:33 26.69008 -80.27042 2079 ft 174 kts 94°
2026-04-25 00:33 26.68955 -80.25661 2054 ft 180 kts 94°
2026-04-25 00:33 26.68897 -80.24268 2060 ft 178 kts 94°
2026-04-25 00:34 26.68837 -80.22873 2056 ft 180 kts 95°
2026-04-25 00:34 26.68774 -80.21466 1939 ft 185 kts 94°
2026-04-25 00:34 26.68717 -80.20046 1685 ft 177 kts 94°
2026-04-25 00:34 26.68662 -80.18737 1453 ft 161 kts 94°
2026-04-25 00:35 26.68611 -80.17533 1229 ft 149 kts 94°
2026-04-25 00:35 26.68563 -80.16430 1042 ft 140 kts 95°
2026-04-25 00:35 26.68524 -80.15349 881 ft 141 kts 95°
2026-04-25 00:35 26.68474 -80.14243 744 ft 142 kts 93°
2026-04-25 00:36 26.68427 -80.13129 520 ft 148 kts 93°
2026-04-25 00:36 26.68379 -80.11980 305 ft 146 kts 93°
2026-04-25 00:36 26.68322 -80.10841 96 ft 144 kts 93°
2026-04-25 00:36 26.68275 -80.09804 21 ft 119 kts 92°
2026-04-25 00:37 26.68247 -80.09101 20 ft 52 kts 93°
2026-04-25 00:37 26.68234 -80.08815 20 ft 29 kts 92°
2026-04-25 00:37 26.68277 -80.08647 20 ft 19 kts 52°
2026-04-25 00:37 26.68322 -80.08570 22 ft 11 kts 61°
2026-04-25 00:38 26.68333 -80.08503 20 ft 9 kts 94°
2026-04-25 00:38 26.68329 -80.08431 20 ft 10 kts 94°
2026-04-25 00:38 26.68324 -80.08346 20 ft 12 kts 94°
2026-04-25 00:38 26.68318 -80.08248 22 ft 13 kts 91°
2026-04-25 00:39 26.68316 -80.08141 21 ft 7 kts 90°
2026-04-25 00:39 26.68339 -80.08088 23 ft 9 kts 52°
2026-04-25 00:39 26.68384 -80.08034 21 ft 10 kts 29°
2026-04-25 00:39 26.68459 -80.08025 21 ft 10 kts
2026-04-25 00:40 26.68537 -80.08020 21 ft 9 kts
2026-04-25 00:40 26.68562 -80.08003 21 ft 5 kts 56°
2026-04-25 00:40 26.68566 -80.07970 21 ft 1 kts 91°
2026-04-25 00:40 26.68565 -80.07955 21 ft 2 kts 91°
2026-04-25 00:41 26.68565 -80.07951 21 ft 0 kts 91°